Location: Unspecified
(0.0000°N, 0.0000°E)
Time: 23:10:48
(UTC+00:00)

Explorer 11/Cluster Stage 4 - All Passes

Search period start: 25 January 2021 00:00
Search period end: 04 February 2021 00:00
Orbit: 467 x 1258 km, 28.8° (Epoch: 25 January)

Date Brightness Start Highest point End Pass type
(mag) Time Alt. Az. Time Alt. Az. Time Alt. Az.
25 Jan - 01:46:57 10° NNW 01:53:05 23° NNE 01:59:10 10° ENE visible
25 Jan - 03:34:44 10° NW 03:42:56 65° NNE 03:50:24 10° ESE visible
25 Jan - 05:24:53 10° W 05:32:14 41° SSW 05:38:36 10° SE visible
25 Jan - 07:19:59 10° SW 07:21:29 11° SSW 07:22:56 10° SSW daylight
25 Jan - 14:39:27 10° SSW 14:41:56 17° SSE 14:44:30 10° ESE daylight
25 Jan - 16:26:23 10° WSW 16:30:02 54° NNW 16:34:17 10° NE daylight
25 Jan - 18:17:32 10° NW 18:18:56 11° NNW 18:20:26 10° N daylight
26 Jan - 01:35:35 10° NNW 01:42:04 26° NNE 01:48:37 10° E visible
26 Jan - 03:23:32 10° NW 03:31:49 75° NNE 03:39:31 10° ESE visible
26 Jan - 05:13:58 10° W 05:21:10 36° SSW 05:27:32 10° SSE visible
26 Jan - 14:28:16 10° SSW 14:31:11 22° SSE 14:34:07 10° E daylight
26 Jan - 16:15:49 10° W 16:19:17 39° NNW 16:23:11 10° NE daylight
27 Jan - 01:24:16 10° NNW 01:31:02 30° NNE 01:37:59 10° E visible
27 Jan - 03:12:23 10° WNW 03:20:41 86° NNE 03:28:34 10° ESE visible
27 Jan - 05:03:08 10° W 05:10:06 31° SSW 05:16:24 10° SSE visible
27 Jan - 14:17:10 10° SSW 14:20:25 29° SSE 14:23:38 10° E daylight
27 Jan - 16:05:20 10° W 16:08:33 29° NNW 16:12:02 10° NNE daylight
27 Jan - 23:28:12 10° N 23:30:00 11° NNE 23:31:50 10° NE night (unlit)
28 Jan - 01:13:01 10° NNW 01:19:58 34° NNE 01:27:16 10° E night (unlit)
28 Jan - 03:01:18 10° WNW 03:09:33 83° SSW 03:17:34 10° ESE visible
28 Jan - 04:52:22 10° W 04:59:04 28° SSW 05:05:13 10° SSE visible
28 Jan - 14:06:08 10° SW 14:09:39 40° SSE 14:13:04 10° E daylight
28 Jan - 15:54:57 10° W 15:57:48 21° NNW 16:00:48 10° NNE daylight
28 Jan - 23:16:22 10° N 23:19:07 12° NNE 23:22:00 10° NE night (unlit)
29 Jan - 01:01:49 10° NW 01:08:53 39° NNE 01:16:27 10° E night (unlit)
29 Jan - 02:50:16 10° WNW 02:58:24 72° SSW 03:06:29 10° SE visible
29 Jan - 04:41:42 10° W 04:48:02 24° SSW 04:53:59 10° SSE visible
29 Jan - 13:55:08 10° SW 13:58:54 56° SSE 14:02:26 10° ENE daylight
29 Jan - 15:44:44 10° WNW 15:47:04 16° NNW 15:49:27 10° NNE daylight
29 Jan - 23:04:52 10° N 23:08:14 14° NNE 23:11:49 10° NE night (unlit)
30 Jan - 00:50:40 10° NW 00:57:47 45° NNE 01:05:34 10° E night (unlit)
30 Jan - 02:39:19 10° WNW 02:47:15 62° SSW 02:55:20 10° SE visible
30 Jan - 04:31:07 10° WSW 04:37:01 21° SSW 04:42:41 10° SSE visible
30 Jan - 11:57:35 10° S 11:59:34 13° SSE 12:01:24 10° SE daylight
30 Jan - 13:44:12 10° WSW 13:48:08 79° SSE 13:51:44 10° ENE daylight
30 Jan - 15:34:47 10° NW 15:36:18 12° NNW 15:37:52 10° N daylight
30 Jan - 22:53:29 10° N 22:57:19 16° NNE 23:01:28 10° ENE night (unlit)
31 Jan - 00:39:34 10° NW 00:46:39 52° NNE 00:54:36 10° ESE night (unlit)
31 Jan - 02:28:26 10° WNW 02:36:08 54° SSW 02:44:08 10° SE visible
31 Jan - 04:20:38 10° WSW 04:26:02 19° SSW 04:31:19 10° SSE visible
31 Jan - 11:45:48 10° SSW 11:48:51 17° SSE 11:51:34 10° ESE daylight
31 Jan - 13:33:17 10° WSW 13:37:21 75° NNW 13:40:59 10° NE daylight
31 Jan - 22:42:12 10° N 22:46:22 17° NNE 22:50:58 10° ENE night (unlit)
01 Feb - 00:28:32 10° NW 00:35:33 61° NNE 00:43:35 10° ESE night (unlit)
01 Feb - 02:17:37 10° W 02:25:01 46° SSW 02:32:52 10° SE visible
01 Feb - 04:10:16 10° WSW 04:15:06 17° SSW 04:19:51 10° SSE visible
01 Feb - 11:34:16 10° SSW 11:38:07 22° SSE 11:41:26 10° ESE daylight
01 Feb - 13:22:26 10° WSW 13:26:34 54° NNW 13:30:10 10° NE daylight
01 Feb - 22:30:59 10° NNW 22:35:24 20° NNE 22:40:24 10° ENE night (unlit)
02 Feb - 00:17:33 10° NW 00:24:26 71° NNE 00:32:29 10° ESE night (unlit)
02 Feb - 02:06:53 10° W 02:13:57 39° SSW 02:21:33 10° SE visible
02 Feb - 04:00:03 10° SW 04:04:11 14° SSW 04:08:18 10° S visible
02 Feb - 11:22:51 10° SW 11:27:21 29° SSE 11:31:07 10° E daylight
02 Feb - 13:11:36 10° WSW 13:15:45 41° NNW 13:19:20 10° NE daylight
02 Feb - 22:19:51 10° NNW 22:24:25 22° NNE 22:29:43 10° E night (unlit)
03 Feb - 00:06:39 10° NW 00:13:21 82° NNE 00:21:21 10° ESE night (unlit)
03 Feb - 01:56:14 10° W 02:02:55 34° SSW 02:10:10 10° SE visible
03 Feb - 03:50:02 10° SW 03:53:18 13° SSW 03:56:35 10° S visible
03 Feb - 09:25:10 10° S 09:27:05 11° SSE 09:28:55 10° SE daylight
03 Feb - 11:11:30 10° SW 11:16:34 38° SSE 11:20:42 10° E daylight
03 Feb - 13:00:50 10° W 13:04:54 32° NNW 13:08:25 10° NNE daylight
03 Feb - 22:08:45 10° NNW 22:13:26 25° NNE 22:18:58 10° E night (unlit)
